Погода в Смотриче

Украина / Хмельницкая область     48°56′49″N   26°33′12″E
темп.,
°C
ветер,
м/с
пор.,
м/с
влажн.,
%
обл.,
%
осадки,
мм/ч
давл.,
гПа
погр.,
м
26 июля, пн
пн2600:00+18вюв36725 0.0 101879
03:00+17вюв487142 0.0 1018133
06:00+16вюв4107135 0.0 1018163
09:00+21ююв511605 0.0 1018446
12:00+26ююв71049100 0.0 1018949
15:00+27ююв6949100 0.0 10171366
18:00+26юв6952100 0.0 1017888
21:00+21юв41268100 0.1 1017229
27 июля, вт
вт2700:00+18ююв367698 0.3 1018102
03:00+17юв4108123 2.1 1017151
06:00+16ююв4108295 0.7 1017168
09:00+21ю58705 0.8 1017279
12:00+27ююв565522 0.3 1016582
15:00+29ю4553100 0.3 1015638
18:00+25ююв697240 0.0 1015286
21:00+21ююв36857 0.9 101588
28 июля, ср
ср2800:00+20ю48876 0.3 1015122
03:00+20юз228413 0.3 101514
06:00+19сз34915 0.4 101569
09:00+22ссз4579100 0.4 1016403
12:00+27сз345861 0.0 1016987
15:00+29сз34495 0.0 10151235
18:00+29сз23500 0.0 10141226
21:00+23ссв11714 0.3 101411
29 июля, чт
чт2900:00+21юв228089 0.6 101411
03:00+20ююв228817 0.6 101317
06:00+20ююв35888 0.0 101277
09:00+24зюз337488 0.0 1013304
12:00+28сз56520 0.0 1013989
15:00+29зсз555261 0.0 10121288
18:00+27сз56600 0.0 10121152
21:00+21сз49820 0.0 1013297
30 июля, пт
пт3000:00+18сз35930 0.0 101476
03:00+17сз22930 0.0 101326
06:00+16ссз22930 0.0 101325
09:00+22сз00710 0.0 1013322
12:00+26юз22510 0.0 1012945
15:00+29ююз22440 0.0 10111176
18:00+29ююв33470 0.0 1009869
21:00+23ююв47685 0.0 1009105